Location: Unspecified
(41.5000°N, 0.0000°E)
Time: 18:27:40
(UTC+00:00)

Courier 1B Rocket - Pass Details

Date: 04 July 2019
Orbit: 920 x 1202 km, 28.2° (Epoch: 15 July)

Event Time Altitude Azimuth Distance (km) Brightness Sun altitude
Rises 00:56:26 0° 245° (WSW) 4,093 - -24.5°
Reaches altitude 10° 00:59:41 10° 235° (SW) 3,123 - -24.3°
Maximum altitude 01:06:12 30° 178° (S) 1,980 - -24.0°
Exits shadow 01:09:34 21° 139° (SE) 2,318 6.6 -23.8°
Drops below altitude 10° 01:12:30 10° 121° (ESE) 3,023 7.4 -23.7°
Sets 01:15:36 0° 111° (ESE) 3,942 8.1 -23.5°
